This is the latest recevied weather packets stored in our database for station/object K4MGY-13. If no packets are shown the sender has not sent any weather packets the latest 1 day(s).
| Time | Temp. | Humidity | Pressure | Rain* | Wind** | Luminosity | Snow |
|---|---|---|---|---|---|---|---|
| 1777991078 | 18.33° C | 63% | 1012.2 hPa | 0 mm | 1.34 m/s, 212° | - | - |
| 1777990778 | 18.33° C | 63% | 1012.2 hPa | 0 mm | 0.89 m/s, 189° | - | - |
| 1777990448 | 18.33° C | 64% | 1012.5 hPa | 0 mm | 1.34 m/s, 203° | - | - |
| 1777990118 | 18.33° C | 64% | 1012.2 hPa | 0 mm | 0.89 m/s, 181° | - | - |
| 1777989818 | 18.33° C | 64% | 1012.2 hPa | 0 mm | 0.89 m/s, 168° | - | - |
| 1777989518 | 17.78° C | 64% | 1011.9 hPa | 0 mm | 1.34 m/s, 212° | - | - |
| 1777989188 | 17.78° C | 64% | 1011.9 hPa | 0 mm | 0.89 m/s, 198° | - | - |
| 1777988890 | 17.78° C | 65% | 1011.9 hPa | 0 mm | 0.89 m/s, 182° | - | - |
| 1777988588 | 17.22° C | 66% | 1011.9 hPa | 0 mm | 0.89 m/s, 200° | - | - |
| 1777988288 | 17.22° C | 66% | 1011.9 hPa | 0 mm | 0.45 m/s, 162° | - | - |
| 1777987959 | 17.22° C | 66% | 1011.9 hPa | 0 mm | 0.89 m/s, 190° | - | - |
| 1777987659 | 16.67° C | 67% | 1011.9 hPa | 0 mm | 0.89 m/s, 188° | - | - |
| 1777987328 | 16.67° C | 66% | 1011.9 hPa | 0 mm | 1.34 m/s, 193° | - | - |
| 1777986699 | 16.67° C | 67% | 1011.9 hPa | 0 mm | 0.89 m/s, 181° | - | - |
| 1777986368 | 16.67° C | 67% | 1011.9 hPa | 0 mm | 0.45 m/s, 171° | - | - |
| 1777986039 | 16.67° C | 67% | 1011.9 hPa | 0 mm | 0.89 m/s, 191° | - | - |
| 1777985738 | 16.67° C | 67% | 1011.9 hPa | 0 mm | 0.45 m/s, 162° | - | - |
| 1777985408 | 16.11° C | 67% | 1011.9 hPa | 0 mm | 0.89 m/s, 185° | - | - |
| 1777985108 | 16.11° C | 67% | 1011.9 hPa | 0 mm | 0.89 m/s, 187° | - | - |
| 1777984809 | 16.11° C | 67% | 1011.9 hPa | 0 mm | 0.89 m/s, 169° | - | - |
| 1777984478 | 16.11° C | 67% | 1012.2 hPa | 0 mm | 1.34 m/s, 194° | - | - |
| 1777984178 | 16.11° C | 67% | 1012.2 hPa | 0 mm | 2.24 m/s, 197° | - | - |
| 1777983849 | 16.11° C | 67% | 1012.2 hPa | 0 mm | 0.89 m/s, 194° | - | - |
| 1777983518 | 15.56° C | 68% | 1012.2 hPa | 0 mm | 0.89 m/s, 124° | - | - |
| 1777983188 | 15.56° C | 68% | 1012.2 hPa | 0 mm | 0.45 m/s, 183° | - | - |
* Rain latest hour (hover to see other rain measurements)
** Current wind speed in m/s (hover to see current wind gust speed)